| time (UTC) | temp C | wind direction | speed KPH | gust KPH | rain 1hr cm | rain 24hr cm | rain mn cm | humidity % | barometer mb |
| 20260507092545 | 16 | 0 | 0.0 | 3.2 | 0.00 | 0.00 | 0.00 | 84 | 1016.6 |
| 20260507092045 | 16 | 0 | 0.0 | 3.2 | 0.00 | 0.00 | 0.00 | 84 | 1016.7 |
| 20260507091549 | 16 | 0 | 0.0 | 3.2 | 0.00 | 0.00 | 0.00 | 84 | 1016.9 |
| 20260507091047 | 16 | 0 | 0.0 | 1.6 | 0.00 | 0.00 | 0.00 | 84 | 1017.0 |
| 20260507090547 | 16 | 0 | 0.0 | 1.6 | 0.00 | 0.00 | 0.00 | 84 | 1016.8 |
| 20260507090051 | 16 | 0 | 0.0 | 1.6 | 0.00 | 0.00 | 0.00 | 85 | 1016.6 |
| 20260507085546 | 16 | 0 | 0.0 | 1.6 | 0.00 | 0.00 | 0.00 | 84 | 1016.5 |
| 20260507085047 | 16 | 0 | 0.0 | 1.6 | 0.00 | 0.00 | 0.00 | 84 | 1016.5 |
| 20260507084548 | 16 | 0 | 0.0 | 1.6 | 0.00 | 0.00 | 0.00 | 84 | 1016.4 |
| 20260507084046 | 16 | 0 | 0.0 | 0.0 | 0.00 | 0.00 | 0.00 | 84 | 1016.1 |
| 20260507083546 | 16 | 0 | 0.0 | 3.2 | 0.00 | 0.00 | 0.00 | 84 | 1016.3 |
| 20260507083048 | 16 | 0 | 0.0 | 3.2 | 0.00 | 0.00 | 0.00 | 84 | 1016.4 |
| 20260507082545 | 16 | 97 | 0.0 | 1.6 | 0.00 | 0.00 | 0.00 | 83 | 1016.4 |
| 20260507082047 | 16 | 0 | 0.0 | 1.6 | 0.00 | 0.00 | 0.00 | 83 | 1016.5 |
| 20260507081554 | 16 | 0 | 0.0 | 1.6 | 0.00 | 0.00 | 0.00 | 83 | 1016.1 |
| 20260507081047 | 16 | 0 | 0.0 | 1.6 | 0.00 | 0.00 | 0.00 | 84 | 1015.8 |
| 20260507080547 | 16 | 0 | 0.0 | 1.6 | 0.00 | 0.00 | 0.00 | 83 | 1016.1 |
| 20260507080101 | 16 | 0 | 0.0 | 3.2 | 0.00 | 0.00 | 0.00 | 83 | 1015.8 |
| 20260507075547 | 16 | 0 | 0.0 | 3.2 | 0.00 | 0.00 | 0.00 | 83 | 1015.9 |
| 20260507075047 | 16 | 0 | 0.0 | 3.2 | 0.00 | 0.00 | 0.00 | 83 | 1016.2 |
| 20260507074558 | 16 | 0 | 0.0 | 4.8 | 0.00 | 0.00 | 0.00 | 82 | 1015.7 |
| 20260507074046 | 16 | 97 | 0.0 | 4.8 | 0.00 | 0.00 | 0.00 | 82 | 1015.7 |
| 20260507073548 | 16 | 97 | 0.0 | 3.2 | 0.00 | 0.00 | 0.00 | 82 | 1015.7 |
| 20260507073101 | 16 | 0 | 0.0 | 3.2 | 0.00 | 0.00 | 0.00 | 82 | 1015.8 |
| 20260507072547 | 16 | 0 | 0.0 | 1.6 | 0.00 | 0.00 | 0.00 | 82 | 1016.1 |
| 20260507072049 | 16 | 0 | 0.0 | 1.6 | 0.00 | 0.00 | 0.00 | 82 | 1015.9 |
| 20260507071553 | 16 | 97 | 0.0 | 1.6 | 0.00 | 0.00 | 0.00 | 82 | 1016.0 |
| 20260507071046 | 16 | 0 | 0.0 | 3.2 | 0.00 | 0.00 | 0.00 | 81 | 1015.9 |
| 20260507070546 | 16 | 0 | 0.0 | 3.2 | 0.00 | 0.00 | 0.00 | 81 | 1015.8 |
| 20260507070058 | 16 | 0 | 0.0 | 3.2 | 0.00 | 0.00 | 0.00 | 81 | 1016.0 |
| 20260507065545 | 16 | 0 | 0.0 | 3.2 | 0.00 | 0.00 | 0.00 | 81 | 1016.3 |
| 20260507065045 | 16 | 0 | 0.0 | 4.8 | 0.00 | 0.00 | 0.00 | 81 | 1016.1 |
| 20260507064555 | 16 | 0 | 0.0 | 4.8 | 0.00 | 0.00 | 0.00 | 81 | 1016.1 |
| 20260507064047 | 16 | 97 | 0.0 | 3.2 | 0.00 | 0.00 | 0.00 | 81 | 1015.9 |
| 20260507063544 | 16 | 116 | 0.0 | 4.8 | 0.00 | 0.00 | 0.00 | 81 | 1015.9 |
| 20260507063054 | 16 | 0 | 0.0 | 4.8 | 0.00 | 0.00 | 0.00 | 81 | 1015.6 |
| 20260507062547 | 16 | 0 | 0.0 | 3.2 | 0.00 | 0.00 | 0.00 | 81 | 1015.4 |
| 20260507062047 | 16 | 0 | 0.0 | 3.2 | 0.00 | 0.00 | 0.00 | 81 | 1015.4 |
| 20260507061552 | 17 | 0 | 0.0 | 3.2 | 0.00 | 0.00 | 0.00 | 81 | 1015.9 |
| 20260507061047 | 17 | 0 | 0.0 | 1.6 | 0.00 | 0.00 | 0.00 | 81 | 1016.1 |
| 20260507060545 | 17 | 0 | 0.0 | 4.8 | 0.00 | 0.00 | 0.00 | 81 | 1016.0 |
| 20260507060053 | 17 | 0 | 0.0 | 4.8 | 0.00 | 0.00 | 0.00 | 81 | 1015.7 |
| 20260507055546 | 17 | 0 | 0.0 | 4.8 | 0.00 | 0.00 | 0.00 | 81 | 1015.6 |
| 20260507055045 | 17 | 0 | 0.0 | 4.8 | 0.00 | 0.00 | 0.00 | 81 | 1015.6 |
| 20260507054551 | 17 | 0 | 0.0 | 1.6 | 0.00 | 0.00 | 0.00 | 81 | 1015.9 |
| 20260507054045 | 17 | 0 | 0.0 | 3.2 | 0.00 | 0.00 | 0.00 | 81 | 1016.0 |
| 20260507053545 | 17 | 0 | 0.0 | 3.2 | 0.00 | 0.00 | 0.00 | 81 | 1016.0 |
| 20260507053058 | 17 | 0 | 0.0 | 3.2 | 0.00 | 0.00 | 0.00 | 81 | 1015.9 |
| 20260507052545 | 17 | 0 | 0.0 | 3.2 | 0.00 | 0.00 | 0.00 | 82 | 1015.8 |
| 20260507052047 | 17 | 0 | 0.0 | 3.2 | 0.00 | 0.00 | 0.00 | 81 | 1015.7 |
| 20260507051548 | 17 | 0 | 0.0 | 3.2 | 0.00 | 0.00 | 0.00 | 81 | 1015.7 |
| 20260507051046 | 17 | 0 | 0.0 | 3.2 | 0.00 | 0.00 | 0.00 | 81 | 1015.8 |
| 20260507050546 | 17 | 0 | 0.0 | 3.2 | 0.00 | 0.00 | 0.00 | 82 | 1015.6 |
| 20260507050050 | 17 | 0 | 0.0 | 4.8 | 0.00 | 0.00 | 0.00 | 81 | 1015.4 |
| 20260507045547 | 17 | 0 | 0.0 | 4.8 | 0.00 | 0.00 | 0.00 | 82 | 1015.6 |
| 20260507045047 | 17 | 0 | 0.0 | 3.2 | 0.00 | 0.00 | 0.00 | 82 | 1015.8 |
| 20260507044559 | 17 | 0 | 0.0 | 3.2 | 0.00 | 0.00 | 0.00 | 82 | 1015.7 |
| 20260507044045 | 17 | 0 | 0.0 | 3.2 | 0.00 | 0.00 | 0.00 | 82 | 1015.8 |
| 20260507043545 | 17 | 0 | 0.0 | 3.2 | 0.00 | 0.00 | 0.00 | 82 | 1015.7 |
| 20260507043051 | 17 | 91 | 0.0 | 1.6 | 0.00 | 0.00 | 0.00 | 82 | 1016.0 |
| 20260507042546 | 17 | 0 | 0.0 | 1.6 | 0.00 | 0.00 | 0.00 | 83 | 1015.9 |
| 20260507042046 | 17 | 0 | 0.0 | 1.6 | 0.00 | 0.00 | 0.00 | 82 | 1015.9 |
| 20260507041552 | 17 | 91 | 0.0 | 1.6 | 0.00 | 0.00 | 0.00 | 82 | 1015.5 |
| 20260507041047 | 17 | 0 | 0.0 | 3.2 | 0.00 | 0.00 | 0.00 | 82 | 1015.4 |
| 20260507040547 | 17 | 0 | 0.0 | 3.2 | 0.00 | 0.00 | 0.00 | 82 | 1015.5 |
| 20260507040058 | 17 | 0 | 0.0 | 3.2 | 0.00 | 0.00 | 0.00 | 82 | 1015.6 |
| 20260507035546 | 17 | 0 | 0.0 | 3.2 | 0.00 | 0.00 | 0.00 | 82 | 1015.5 |
| 20260507035047 | 17 | 0 | 0.0 | 1.6 | 0.00 | 0.00 | 0.00 | 82 | 1015.5 |
| 20260507034553 | 17 | 0 | 0.0 | 1.6 | 0.00 | 0.00 | 0.00 | 82 | 1015.7 |
| 20260507034048 | 17 | 0 | 0.0 | 1.6 | 0.00 | 0.00 | 0.00 | 81 | 1015.6 |
| 20260507033546 | 17 | 0 | 0.0 | 1.6 | 0.00 | 0.00 | 0.00 | 82 | 1015.6 |
| 20260507033102 | 17 | 0 | 0.0 | 3.2 | 0.00 | 0.00 | 0.00 | 81 | 1015.7 |
| 20260507032548 | 17 | 0 | 0.0 | 3.2 | 0.00 | 0.00 | 0.00 | 81 | 1015.4 |
| 20260507032046 | 17 | 91 | 0.0 | 3.2 | 0.00 | 0.00 | 0.00 | 81 | 1015.1 |
| 20260507031600 | 17 | 91 | 0.0 | 3.2 | 0.00 | 0.00 | 0.00 | 81 | 1015.2 |
| 20260507031047 | 17 | 91 | 0.0 | 3.2 | 0.00 | 0.00 | 0.00 | 81 | 1015.4 |
| 20260507030547 | 17 | 0 | 0.0 | 3.2 | 0.00 | 0.00 | 0.00 | 82 | 1015.6 |
| 20260507030107 | 17 | 0 | 0.0 | 3.2 | 0.00 | 0.00 | 0.00 | 82 | 1015.5 |
| 20260507025546 | 17 | 0 | 0.0 | 3.2 | 0.00 | 0.00 | 0.00 | 82 | 1015.1 |
| 20260507025047 | 17 | 0 | 0.0 | 3.2 | 0.00 | 0.00 | 0.00 | 81 | 1015.1 |
| 20260507024609 | 17 | 91 | 0.0 | 3.2 | 0.00 | 0.00 | 0.00 | 82 | 1014.8 |
| 20260507024133 | 17 | 0 | 0.0 | 3.2 | 0.00 | 0.00 | 0.00 | 82 | 1015.0 |
| 20260507023546 | 17 | 0 | 0.0 | 3.2 | 0.00 | 0.00 | 0.00 | 82 | 1015.3 |
| 20260507023053 | 17 | 0 | 0.0 | 3.2 | 0.00 | 0.00 | 0.00 | 82 | 1014.9 |
| 20260507022545 | 17 | 0 | 0.0 | 3.2 | 0.00 | 0.00 | 0.00 | 81 | 1014.6 |
| 20260507022047 | 18 | 0 | 0.0 | 3.2 | 0.00 | 0.00 | 0.00 | 81 | 1014.7 |
| 20260507021557 | 18 | 0 | 0.0 | 3.2 | 0.00 | 0.00 | 0.00 | 81 | 1014.4 |
| 20260507021049 | 18 | 0 | 0.0 | 3.2 | 0.00 | 0.00 | 0.00 | 81 | 1014.4 |
| 20260507020546 | 18 | 0 | 0.0 | 3.2 | 0.00 | 0.00 | 0.00 | 81 | 1014.6 |
| 20260507020100 | 18 | 0 | 0.0 | 3.2 | 0.00 | 0.00 | 0.00 | 82 | 1014.5 |
| 20260507015545 | 18 | 91 | 0.0 | 1.6 | 0.00 | 0.00 | 0.00 | 82 | 1014.3 |
| 20260507015048 | 18 | 0 | 0.0 | 1.6 | 0.00 | 0.00 | 0.00 | 81 | 1014.2 |
| 20260507014557 | 18 | 0 | 0.0 | 1.6 | 0.00 | 0.00 | 0.00 | 81 | 1014.1 |
| 20260507014046 | 18 | 0 | 0.0 | 1.6 | 0.00 | 0.00 | 0.00 | 82 | 1014.1 |
| 20260507013545 | 18 | 0 | 0.0 | 1.6 | 0.00 | 0.00 | 0.00 | 81 | 1013.9 |
| 20260507013100 | 18 | 0 | 0.0 | 1.6 | 0.00 | 0.00 | 0.00 | 81 | 1014.0 |
| 20260507012547 | 18 | 0 | 0.0 | 1.6 | 0.00 | 0.00 | 0.00 | 81 | 1013.7 |
| 20260507012045 | 18 | 0 | 0.0 | 1.6 | 0.00 | 0.00 | 0.00 | 81 | 1013.7 |
| 20260507011557 | 18 | 0 | 0.0 | 1.6 | 0.00 | 0.00 | 0.00 | 80 | 1013.8 |
| 20260507011046 | 18 | 0 | 0.0 | 1.6 | 0.00 | 0.00 | 0.00 | 80 | 1013.7 |
| 20260507010546 | 18 | 0 | 0.0 | 1.6 | 0.00 | 0.00 | 0.00 | 80 | 1013.5 |
| 20260507010053 | 18 | 0 | 0.0 | 1.6 | 0.00 | 0.00 | 0.00 | 81 | 1013.6 |
| 20260507005546 | 18 | 0 | 0.0 | 3.2 | 0.00 | 0.00 | 0.00 | 80 | 1013.5 |
| 20260507005046 | 18 | 91 | 0.0 | 3.2 | 0.00 | 0.00 | 0.00 | 80 | 1013.4 |
| 20260507004552 | 18 | 0 | 0.0 | 3.2 | 0.00 | 0.00 | 0.00 | 81 | 1013.5 |
| 20260507004047 | 18 | 0 | 0.0 | 3.2 | 0.00 | 0.00 | 0.00 | 80 | 1013.1 |
| 20260507003549 | 18 | 0 | 0.0 | 3.2 | 0.00 | 0.00 | 0.00 | 80 | 1012.9 |
| 20260507003051 | 18 | 0 | 0.0 | 3.2 | 0.00 | 0.00 | 0.00 | 80 | 1013.4 |
| 20260507002547 | 18 | 0 | 0.0 | 3.2 | 0.00 | 0.00 | 0.00 | 79 | 1013.0 |
| 20260507002045 | 18 | 91 | 0.0 | 3.2 | 0.00 | 0.00 | 0.00 | 80 | 1013.3 |
| 20260507001549 | 18 | 0 | 0.0 | 3.2 | 0.00 | 0.00 | 0.00 | 80 | 1013.2 |
| 20260507001047 | 18 | 0 | 0.0 | 3.2 | 0.00 | 0.00 | 0.00 | 80 | 1013.0 |
| 20260507000545 | 18 | 0 | 0.0 | 4.8 | 0.00 | 0.00 | 0.00 | 80 | 1013.1 |
| 20260507000050 | 18 | 0 | 0.0 | 3.2 | 0.00 | 0.00 | 0.00 | 80 | 1013.1 |
| 20260506235546 | 18 | 0 | 0.0 | 3.2 | 0.00 | 0.00 | 0.00 | 80 | 1013.1 |
| 20260506235046 | 18 | 0 | 0.0 | 3.2 | 0.00 | 0.00 | 0.00 | 79 | 1012.8 |
| 20260506234554 | 18 | 91 | 0.0 | 3.2 | 0.00 | 0.00 | 0.00 | 79 | 1013.1 |
| 20260506234046 | 18 | 0 | 0.0 | 3.2 | 0.00 | 0.00 | 0.00 | 79 | 1013.2 |
| 20260506233548 | 18 | 0 | 0.0 | 3.2 | 0.00 | 0.00 | 0.00 | 79 | 1012.9 |
| 20260506233056 | 18 | 91 | 0.0 | 3.2 | 0.00 | 0.00 | 0.00 | 79 | 1012.8 |
| 20260506232547 | 18 | 0 | 0.0 | 3.2 | 0.00 | 0.00 | 0.00 | 79 | 1012.9 |
| 20260506232048 | 18 | 91 | 0.0 | 3.2 | 0.00 | 0.00 | 0.00 | 78 | 1012.9 |
| 20260506231555 | 18 | 91 | 0.0 | 3.2 | 0.00 | 0.00 | 0.00 | 78 | 1012.9 |
| 20260506231048 | 18 | 91 | 0.0 | 3.2 | 0.00 | 0.00 | 0.00 | 78 | 1012.7 |
| 20260506230547 | 18 | 91 | 0.0 | 3.2 | 0.00 | 0.00 | 0.00 | 78 | 1012.9 |
| 20260506230059 | 18 | 0 | 0.0 | 3.2 | 0.00 | 0.00 | 0.00 | 77 | 1012.8 |
| 20260506225548 | 18 | 91 | 0.0 | 3.2 | 0.00 | 0.00 | 0.00 | 77 | 1012.8 |
| 20260506225047 | 18 | 91 | 0.0 | 3.2 | 0.00 | 0.00 | 0.00 | 78 | 1012.7 |
| 20260506224551 | 18 | 0 | 0.0 | 3.2 | 0.00 | 0.00 | 0.00 | 77 | 1012.6 |
| 20260506224047 | 18 | 0 | 0.0 | 3.2 | 0.00 | 0.00 | 0.00 | 78 | 1012.7 |
| 20260506223548 | 19 | 0 | 0.0 | 3.2 | 0.00 | 0.00 | 0.00 | 77 | 1012.7 |
| 20260506223051 | 19 | 91 | 0.0 | 3.2 | 0.00 | 0.00 | 0.00 | 76 | 1012.5 |
| 20260506222552 | 19 | 0 | 0.0 | 3.2 | 0.00 | 0.00 | 0.00 | 75 | 1012.4 |
| 20260506222048 | 19 | 0 | 0.0 | 3.2 | 0.00 | 0.00 | 0.00 | 76 | 1012.4 |
| 20260506221550 | 20 | 0 | 0.0 | 6.4 | 0.00 | 0.00 | 0.00 | 75 | 1012.5 |
| 20260506221050 | 20 | 0 | 0.0 | 6.4 | 0.00 | 0.00 | 0.00 | 75 | 1012.5 |
| 20260506220548 | 20 | 122 | 0.0 | 3.2 | 0.00 | 0.00 | 0.00 | 76 | 1012.6 |
| 20260506220054 | 20 | 0 | 0.0 | 4.8 | 0.00 | 0.00 | 0.00 | 75 | 1012.7 |
| 20260506215547 | 20 | 0 | 0.0 | 4.8 | 0.00 | 0.00 | 0.00 | 73 | 1012.6 |
| 20260506215048 | 20 | 0 | 0.0 | 6.4 | 0.00 | 0.00 | 0.00 | 72 | 1012.5 |
| 20260506214551 | 21 | 0 | 1.6 | 6.4 | 0.00 | 0.00 | 0.00 | 73 | 1012.4 |
| 20260506214049 | 21 | 114 | 0.0 | 4.8 | 0.00 | 0.00 | 0.00 | 73 | 1012.3 |
| 20260506213548 | 21 | 95 | 0.0 | 4.8 | 0.00 | 0.00 | 0.00 | 73 | 1012.2 |
| 20260506213055 | 21 | 95 | 0.0 | 4.8 | 0.00 | 0.00 | 0.00 | 73 | 1012.2 |
| 20260506212548 | 21 | 51 | 0.0 | 6.4 | 0.00 | 0.00 | 0.00 | 72 | 1012.2 |
| 20260506212048 | 21 | 0 | 1.6 | 6.4 | 0.00 | 0.00 | 0.00 | 72 | 1012.3 |
| 20260506211554 | 21 | 0 | 0.0 | 6.4 | 0.00 | 0.00 | 0.00 | 73 | 1012.2 |
| 20260506211048 | 22 | 142 | 0.0 | 4.8 | 0.00 | 0.00 | 0.00 | 72 | 1012.3 |
| 20260506210548 | 22 | 0 | 0.0 | 6.4 | 0.00 | 0.00 | 0.00 | 72 | 1012.2 |
| 20260506210052 | 22 | 140 | 1.6 | 4.8 | 0.00 | 0.00 | 0.00 | 71 | 1012.3 |
| 20260506205548 | 23 | 90 | 0.0 | 4.8 | 0.00 | 0.00 | 0.00 | 72 | 1012.2 |
| 20260506205048 | 23 | 0 | 0.0 | 4.8 | 0.00 | 0.00 | 0.00 | 74 | 1012.3 |
| 20260506204553 | 22 | 86 | 1.6 | 4.8 | 0.00 | 0.00 | 0.00 | 73 | 1012.4 |
| 20260506204047 | 22 | 79 | 0.0 | 3.2 | 0.00 | 0.00 | 0.00 | 73 | 1012.5 |
| 20260506203547 | 22 | 0 | 0.0 | 6.4 | 0.00 | 0.00 | 0.00 | 74 | 1012.5 |
| 20260506203049 | 22 | 20 | 0.0 | 4.8 | 0.00 | 0.00 | 0.00 | 75 | 1012.4 |
| 20260506202634 | 22 | 13 | 0.0 | 4.8 | 0.00 | 0.00 | 0.00 | 76 | 1012.3 |
| 20260506202046 | 22 | 0 | 0.0 | 6.4 | 0.00 | 0.00 | 0.00 | 74 | 1012.4 |
| 20260506201556 | 22 | 83 | 1.6 | 4.8 | 0.00 | 0.00 | 0.00 | 73 | 1012.2 |
| 20260506201046 | 23 | 148 | 1.6 | 4.8 | 0.00 | 0.00 | 0.00 | 75 | 1012.3 |
| 20260506200545 | 23 | 0 | 0.0 | 3.2 | 0.00 | 0.00 | 0.00 | 75 | 1012.1 |
| 20260506200059 | 23 | 0 | 0.0 | 6.4 | 0.00 | 0.00 | 0.00 | 74 | 1012.1 |
| 20260506195546 | 23 | 0 | 0.0 | 6.4 | 0.00 | 0.00 | 0.00 | 74 | 1012.1 |
| 20260506195045 | 24 | 43 | 0.0 | 6.4 | 0.00 | 0.00 | 0.00 | 73 | 1011.9 |
| 20260506194556 | 24 | 103 | 1.6 | 4.8 | 0.00 | 0.00 | 0.00 | 72 | 1011.8 |
| 20260506194045 | 25 | 103 | 0.0 | 3.2 | 0.00 | 0.00 | 0.00 | 75 | 1011.6 |
| 20260506193550 | 25 | 0 | 0.0 | 3.2 | 0.00 | 0.00 | 0.00 | 74 | 1011.5 |
| 20260506193054 | 25 | 0 | 0.0 | 3.2 | 0.00 | 0.00 | 0.00 | 75 | 1011.6 |
| 20260506192544 | 25 | 103 | 0.0 | 3.2 | 0.00 | 0.00 | 0.00 | 75 | 1011.5 |
| 20260506192045 | 25 | 0 | 0.0 | 3.2 | 0.00 | 0.00 | 0.00 | 75 | 1011.5 |
| 20260506191552 | 25 | 0 | 0.0 | 3.2 | 0.00 | 0.00 | 0.00 | 76 | 1011.6 |
| 20260506191045 | 25 | 0 | 0.0 | 3.2 | 0.00 | 0.00 | 0.00 | 76 | 1011.7 |
| 20260506190545 | 25 | 0 | 0.0 | 3.2 | 0.00 | 0.00 | 0.00 | 77 | 1011.8 |
| 20260506190058 | 25 | 0 | 0.0 | 3.2 | 0.00 | 0.00 | 0.00 | 76 | 1011.9 |
| 20260506185545 | 25 | 0 | 0.0 | 4.8 | 0.00 | 0.00 | 0.00 | 77 | 1011.9 |
| 20260506185045 | 25 | 0 | 0.0 | 4.8 | 0.00 | 0.00 | 0.00 | 77 | 1011.9 |
| 20260506184554 | 25 | 103 | 0.0 | 4.8 | 0.00 | 0.00 | 0.00 | 80 | 1011.8 |
| 20260506184045 | 24 | 0 | 1.6 | 4.8 | 0.00 | 0.00 | 0.00 | 81 | 1011.8 |
| 20260506183549 | 24 | 0 | 0.0 | 3.2 | 0.00 | 0.00 | 0.00 | 78 | 1011.8 |
| 20260506183054 | 23 | 0 | 0.0 | 3.2 | 0.00 | 0.00 | 0.00 | 81 | 1011.8 |
| 20260506182545 | 23 | 103 | 0.0 | 3.2 | 0.00 | 0.00 | 0.00 | 82 | 1012.0 |
| 20260506182045 | 23 | 0 | 0.0 | 4.8 | 0.00 | 0.00 | 0.00 | 80 | 1012.0 |
| 20260506181559 | 23 | 0 | 0.0 | 4.8 | 0.00 | 0.00 | 0.00 | 81 | 1012.0 |
| 20260506181045 | 23 | 103 | 0.0 | 4.8 | 0.00 | 0.00 | 0.00 | 82 | 1011.9 |
| 20260506180545 | 22 | 0 | 0.0 | 4.8 | 0.00 | 0.00 | 0.00 | 83 | 1011.9 |
| 20260506180051 | 22 | 0 | 0.0 | 4.8 | 0.00 | 0.00 | 0.00 | 83 | 1011.9 |
| 20260506175545 | 22 | 0 | 0.0 | 4.8 | 0.00 | 0.00 | 0.00 | 82 | 1011.8 |
| 20260506175045 | 22 | 103 | 1.6 | 4.8 | 0.00 | 0.00 | 0.00 | 85 | 1011.8 |
| 20260506174557 | 22 | 0 | 1.6 | 4.8 | 0.00 | 0.00 | 0.00 | 85 | 1011.9 |
| 20260506174045 | 21 | 0 | 0.0 | 4.8 | 0.00 | 0.00 | 0.00 | 89 | 1011.9 |
| 20260506173545 | 21 | 103 | 0.0 | 4.8 | 0.00 | 0.00 | 0.00 | 87 | 1012.0 |
| 20260506173124 | 21 | 103 | 1.6 | 4.8 | 0.00 | 0.00 | 0.00 | 89 | 1012.2 |
| 20260506172546 | 20 | 0 | 1.6 | 4.8 | 0.00 | 0.00 | 0.00 | 90 | 1012.2 |
| 20260506172047 | 20 | 0 | 0.0 | 3.2 | 0.00 | 0.00 | 0.00 | 92 | 1012.1 |
| 20260506171547 | 20 | 103 | 0.0 | 4.8 | 0.00 | 0.00 | 0.00 | 91 | 1012.2 |
| 20260506171045 | 19 | 0 | 0.0 | 4.8 | 0.00 | 0.00 | 0.00 | 90 | 1012.1 |
| 20260506170544 | 19 | 103 | 0.0 | 3.2 | 0.00 | 0.00 | 0.00 | 92 | 1012.3 |
| 20260506170052 | 19 | 0 | 0.0 | 3.2 | 0.00 | 0.00 | 0.00 | 92 | 1012.2 |
| 20260506165544 | 19 | 103 | 0.0 | 3.2 | 0.00 | 0.00 | 0.00 | 93 | 1012.5 |
| 20260506165045 | 18 | 0 | 0.0 | 3.2 | 0.00 | 0.00 | 0.00 | 93 | 1012.6 |
| 20260506164556 | 18 | 0 | 0.0 | 3.2 | 0.00 | 0.00 | 0.00 | 92 | 1012.7 |
| 20260506164045 | 18 | 0 | 0.0 | 3.2 | 0.00 | 0.00 | 0.00 | 90 | 1012.7 |
| 20260506163545 | 18 | 0 | 0.0 | 6.4 | 0.00 | 0.00 | 0.00 | 88 | 1012.8 |
| 20260506163106 | 18 | 0 | 0.0 | 4.8 | 0.00 | 0.00 | 0.00 | 87 | 1013.1 |
| 20260506162545 | 19 | 0 | 1.6 | 9.7 | 0.00 | 0.00 | 0.00 | 87 | 1013.4 |
| 20260506162047 | 19 | 0 | 0.0 | 9.7 | 0.00 | 0.00 | 0.00 | 86 | 1013.5 |
| 20260506161622 | 20 | 0 | 1.6 | 6.4 | 0.00 | 0.00 | 0.00 | 86 | 1013.5 |
| 20260506161044 | 20 | 96 | 1.6 | 4.8 | 0.00 | 0.00 | 0.00 | 86 | 1013.5 |
| 20260506160545 | 20 | 0 | 1.6 | 4.8 | 0.00 | 0.00 | 0.00 | 86 | 1013.1 |
| 20260506160051 | 21 | 0 | 0.0 | 8.0 | 0.00 | 0.00 | 0.00 | 85 | 1013.0 |
| 20260506155544 | 21 | 141 | 1.6 | 6.4 | 0.00 | 0.00 | 0.00 | 83 | 1013.1 |
| 20260506155044 | 22 | 119 | 1.6 | 6.4 | 0.00 | 0.00 | 0.00 | 82 | 1013.0 |
| 20260506154600 | 23 | 183 | 0.0 | 6.4 | 0.00 | 0.00 | 0.00 | 82 | 1012.9 |
| 20260506154045 | 23 | 0 | 1.6 | 6.4 | 0.00 | 0.00 | 0.00 | 80 | 1012.5 |
| 20260506153546 | 25 | 149 | 1.6 | 6.4 | 0.00 | 0.00 | 0.00 | 86 | 1012.5 |
| 20260506153059 | 25 | 0 | 0.0 | 0.0 | 0.00 | 0.00 | 0.00 | 89 | 1012.0 |
| 20260506152545 | 25 | 0 | 0.0 | 0.0 | 0.00 | 0.00 | 0.00 | 89 | 1011.9 |
| 20260506152045 | 25 | 0 | 0.0 | 0.0 | 0.00 | 0.00 | 0.00 | 89 | 1011.6 |
| 20260506151555 | 25 | 0 | 0.0 | 0.0 | 0.00 | 0.00 | 0.00 | 89 | 1011.4 |
| 20260506151045 | 25 | 0 | 0.0 | 0.0 | 0.00 | 0.00 | 0.00 | 89 | 1011.6 |
| 20260506150548 | 25 | 0 | 0.0 | 0.0 | 0.00 | 0.00 | 0.00 | 89 | 1011.5 |
| 20260506150052 | 25 | 0 | 0.0 | 0.0 | 0.00 | 0.00 | 0.00 | 89 | 1011.5 |
| 20260506145545 | 25 | 0 | 0.0 | 0.0 | 0.00 | 0.00 | 0.00 | 89 | 1011.1 |
| 20260506145044 | 25 | 0 | 0.0 | 4.8 | 0.00 | 0.00 | 0.00 | 89 | 1011.0 |
| 20260506144552 | 25 | 0 | 0.0 | 4.8 | 0.00 | 0.00 | 0.00 | 89 | 1010.7 |
| 20260506144044 | 25 | 0 | 0.0 | 0.0 | 0.00 | 0.00 | 0.00 | 89 | 1010.8 |
| 20260506143545 | 25 | 0 | 0.0 | 4.8 | 0.00 | 0.00 | 0.00 | 89 | 1010.8 |
| 20260506143101 | 25 | 0 | 0.0 | 4.8 | 0.00 | 0.00 | 0.00 | 89 | 1010.6 |
| 20260506142545 | 25 | 24 | 0.0 | 4.8 | 0.00 | 0.00 | 0.00 | 90 | 1010.6 |
| 20260506142045 | 25 | 0 | 0.0 | 4.8 | 0.00 | 0.00 | 0.00 | 91 | 1010.3 |
| 20260506141548 | 24 | 0 | 0.0 | 1.6 | 0.00 | 0.00 | 0.00 | 91 | 1010.3 |
| 20260506141048 | 24 | 0 | 0.0 | 1.6 | 0.00 | 0.00 | 0.00 | 91 | 1010.5 |
| 20260506140548 | 24 | 0 | 0.0 | 1.6 | 0.00 | 0.00 | 0.00 | 91 | 1010.8 |
| 20260506140049 | 24 | 0 | 0.0 | 0.0 | 0.00 | 0.00 | 0.00 | 91 | 1010.7 |
| 20260506135546 | 24 | 0 | 0.0 | 0.0 | 0.00 | 0.00 | 0.00 | 91 | 1010.6 |
| 20260506135048 | 24 | 0 | 0.0 | 1.6 | 0.00 | 0.00 | 0.00 | 92 | 1010.4 |
| 20260506134552 | 24 | 0 | 0.0 | 3.2 | 0.00 | 0.00 | 0.00 | 91 | 1010.1 |
| 20260506134048 | 24 | 0 | 0.0 | 3.2 | 0.00 | 0.00 | 0.00 | 91 | 1010.1 |
| 20260506133548 | 24 | 0 | 0.0 | 0.0 | 0.00 | 0.00 | 0.00 | 91 | 1010.1 |
| 20260506133046 | 24 | 0 | 0.0 | 3.2 | 0.00 | 0.00 | 0.00 | 91 | 1010.0 |
| 20260506132547 | 23 | 0 | 0.0 | 3.2 | 0.00 | 0.00 | 0.00 | 91 | 1010.0 |
| 20260506132047 | 23 | 24 | 0.0 | 3.2 | 0.00 | 0.00 | 0.00 | 92 | 1010.0 |
| 20260506131551 | 23 | 0 | 0.0 | 1.6 | 0.00 | 0.00 | 0.00 | 92 | 1010.0 |
| 20260506131047 | 23 | 0 | 0.0 | 3.2 | 0.00 | 0.00 | 0.00 | 92 | 1010.0 |
| 20260506130547 | 23 | 0 | 0.0 | 3.2 | 0.00 | 0.00 | 0.00 | 92 | 1009.9 |
| 20260506125548 | 23 | 0 | 0.0 | 1.6 | 0.00 | 0.00 | 0.00 | 92 | 1009.7 |
| 20260506125047 | 23 | 0 | 0.0 | 1.6 | 0.00 | 0.00 | 0.00 | 92 | 1009.7 |
| 20260506124557 | 23 | 0 | 0.0 | 1.6 | 0.00 | 0.00 | 0.00 | 92 | 1009.7 |
| 20260506124048 | 23 | 0 | 0.0 | 0.0 | 0.00 | 0.00 | 0.00 | 92 | 1009.7 |
| 20260506123548 | 23 | 0 | 0.0 | 0.0 | 0.00 | 0.00 | 0.00 | 92 | 1009.7 |
| 20260506123051 | 23 | 0 | 0.0 | 1.6 | 0.00 | 0.00 | 0.00 | 92 | 1009.7 |
| 20260506122550 | 23 | 0 | 0.0 | 1.6 | 0.00 | 0.00 | 0.00 | 92 | 1009.8 |
| 20260506122047 | 23 | 0 | 0.0 | 1.6 | 0.00 | 0.00 | 0.00 | 92 | 1009.7 |
| 20260506121547 | 23 | 0 | 0.0 | 0.0 | 0.00 | 0.00 | 0.00 | 92 | 1009.8 |
| 20260506121047 | 23 | 0 | 0.0 | 0.0 | 0.00 | 0.00 | 0.00 | 92 | 1009.8 |
| 20260506120550 | 23 | 0 | 0.0 | 0.0 | 0.00 | 0.00 | 0.00 | 92 | 1009.7 |
| 20260506120049 | 23 | 0 | 0.0 | 0.0 | 0.00 | 0.00 | 0.00 | 92 | 1009.6 |
| 20260506115547 | 23 | 0 | 0.0 | 0.0 | 0.00 | 0.00 | 0.00 | 92 | 1009.5 |
| 20260506115046 | 23 | 0 | 0.0 | 3.2 | 0.00 | 0.00 | 0.00 | 92 | 1009.5 |
| 20260506114547 | 23 | 0 | 0.0 | 3.2 | 0.00 | 0.00 | 0.00 | 92 | 1009.5 |
| 20260506114047 | 23 | 0 | 0.0 | 0.0 | 0.00 | 0.00 | 0.00 | 92 | 1009.6 |
| 20260506113547 | 23 | 0 | 0.0 | 0.0 | 0.00 | 0.00 | 0.00 | 92 | 1009.5 |
| 20260506113055 | 23 | 0 | 0.0 | 0.0 | 0.00 | 0.00 | 0.00 | 92 | 1009.7 |
| 20260506112549 | 23 | 0 | 0.0 | 0.0 | 0.00 | 0.00 | 0.00 | 91 | 1009.6 |
| 20260506112047 | 23 | 0 | 0.0 | 0.0 | 0.00 | 0.00 | 0.00 | 91 | 1009.5 |
| 20260506111552 | 23 | 0 | 0.0 | 0.0 | 0.00 | 0.00 | 0.00 | 91 | 1009.6 |
| 20260506111048 | 23 | 0 | 0.0 | 0.0 | 0.00 | 0.00 | 0.00 | 91 | 1009.7 |
| 20260506110548 | 23 | 0 | 0.0 | 1.6 | 0.00 | 0.00 | 0.00 | 91 | 1009.5 |
| 20260506110100 | 23 | 0 | 0.0 | 1.6 | 0.00 | 0.00 | 0.00 | 91 | 1009.6 |
| 20260506105548 | 23 | 0 | 0.0 | 1.6 | 0.00 | 0.00 | 0.00 | 91 | 1009.5 |
| 20260506105048 | 23 | 0 | 0.0 | 1.6 | 0.00 | 0.00 | 0.00 | 91 | 1009.4 |
| 20260506104557 | 23 | 0 | 0.0 | 0.0 | 0.00 | 0.00 | 0.00 | 91 | 1009.4 |
| 20260506104048 | 24 | 0 | 0.0 | 0.0 | 0.00 | 0.00 | 0.00 | 91 | 1009.5 |
| 20260506103548 | 24 | 0 | 0.0 | 0.0 | 0.00 | 0.00 | 0.00 | 91 | 1009.4 |
| 20260506103059 | 24 | 0 | 0.0 | 1.6 | 0.00 | 0.00 | 0.00 | 90 | 1009.3 |
| 20260506102547 | 24 | 0 | 0.0 | 3.2 | 0.00 | 0.00 | 0.00 | 90 | 1009.3 |
| 20260506102047 | 24 | 0 | 0.0 | 3.2 | 0.00 | 0.00 | 0.00 | 90 | 1009.2 |
| 20260506101608 | 23 | 0 | 0.0 | 3.2 | 0.00 | 0.00 | 0.00 | 90 | 1009.0 |
| 20260506101047 | 24 | 0 | 0.0 | 6.4 | 0.00 | 0.00 | 0.00 | 91 | 1009.0 |
| 20260506100547 | 24 | 0 | 0.0 | 6.4 | 0.00 | 0.00 | 0.00 | 91 | 1009.0 |
| 20260506100114 | 24 | 0 | 0.0 | 3.2 | 0.00 | 0.00 | 0.00 | 91 | 1008.9 |
| 20260506095548 | 24 | 0 | 0.0 | 1.6 | 0.00 | 0.00 | 0.00 | 91 | 1008.8 |
| 20260506095049 | 24 | 0 | 0.0 | 3.2 | 0.00 | 0.00 | 0.00 | 91 | 1008.8 |
| 20260506094551 | 24 | 0 | 0.0 | 3.2 | 0.00 | 0.00 | 0.00 | 91 | 1008.8 |
| 20260506094049 | 24 | 0 | 0.0 | 4.8 | 0.00 | 0.00 | 0.00 | 91 | 1008.6 |
| 20260506093547 | 24 | 24 | 0.0 | 4.8 | 0.00 | 0.00 | 0.00 | 91 | 1008.6 |
| 20260506093051 | 24 | 0 | 1.6 | 4.8 | 0.00 | 0.00 | 0.00 | 91 | 1008.5 |